Weather History for Missoula, MT

Change the Weather History Date:

Tuesday, February 4, 2014

  Actual Average Record
Temperature  
Mean Temperature 3 °F 28 °F  
Max Temperature 7 °F 36 °F 53 °F (1963)
Min Temperature -1 °F 20 °F -23 °F (1989)
Degree Days  
Heating Degree Days 62 37  
Month to date heating degree days 202 148  
Since 1 July heating degree days 4461 4537  
Cooling Degree Days 0 0  
Month to date cooling degree days 0 0  
Year to date cooling degree days 0 0  
Moisture  
Dew Point -11 °F    
Average Humidity 56    
Maximum Humidity 66    
Minimum Humidity 46    
Precipitation  
Precipitation 0.00 in 0.03 in 0.42 in (1959)
Month to date precipitation 0.03 0.10  
Year to date precipitation 0.91 0.95  
Snow  
Snow 0.00 in - - ()
Month to date snowfall 0.5  
Year to date snowfall 7.0  
Since 1 July snowfall 20.9  
Snow Depth 4.00 in    
Sea Level Pressure  
Sea Level Pressure 30.56 in    
Wind  
Wind Speed 16 mph (ESE)    
Max Wind Speed 24 mph    
Max Gust Speed 29 mph    
Visibility 10 miles    
Events      
T = Trace of Precipitation, MM = Missing Value Source: NWS Daily Summary

Daily Weather History Graph

Daily Weather History Graph

Search for Another Location

Airport:

Trip Planner

Search our weather history database for the weather conditions in past years. The results will help you decide how hot, cold, wet, or windy it might be!

Date:

Astronomy

Feb. 04, 2014 Rise Set
Actual Time 7:57 AM MST 5:44 PM MST
Civil Twilight 7:24 AM MST 6:16 PM MST
Nautical Twilight 6:48 AM MST 6:52 PM MST
Astronomical Twilight 6:13 AM MST 7:28 PM MST
Moon 10:13 AM MST (2/4) No Moon Set
Length of Visible Light 10h 51m
Length of Day
9h 47m
Waxing Crescent, 29% of the Moon is Illuminated
Feb 4
Waxing Crescent
Feb 6
First Quarter
Feb 14
Full
Feb 22
Last Quarter
Mar 1
New

Hourly Weather History & Observations

Time (MST) Temp. Windchill Dew Point Humidity Pressure Visibility Wind Dir Wind Speed Gust Speed Precip Events Conditions
12:53 AM 5.0 °F -12.3 °F -5.1 °F 63% 30.40 in 10.0 mi SE 13.8 mph - N/A   Clear
1:53 AM 5.0 °F -10.8 °F -6.0 °F 61% 30.42 in 10.0 mi SE 11.5 mph - N/A   Clear
2:53 AM 3.9 °F -12.2 °F -7.1 °F 60% 30.44 in 10.0 mi ESE 11.5 mph - N/A   Clear
3:53 AM 3.0 °F -14.1 °F -9.0 °F 57% 30.45 in 10.0 mi SE 12.7 mph - N/A   Clear
4:53 AM 3.0 °F -14.8 °F -11.0 °F 52% 30.46 in 10.0 mi SE 13.8 mph - N/A   Clear
5:53 AM 1.9 °F -16.2 °F -11.9 °F 52% 30.48 in 10.0 mi SE 13.8 mph - N/A   Clear
6:53 AM 1.0 °F -18.0 °F -13.0 °F 52% 30.51 in 10.0 mi SE 15.0 mph 19.6 mph N/A   Mostly Cloudy
7:53 AM 1.0 °F -19.3 °F -13.0 °F 52% 30.53 in 10.0 mi SE 17.3 mph - N/A   Overcast
8:53 AM 1.0 °F -18.0 °F -14.1 °F 49% 30.56 in 10.0 mi SE 15.0 mph - N/A   Overcast
9:53 AM 1.9 °F -15.5 °F -11.9 °F 52% 30.57 in 10.0 mi ESE 12.7 mph - N/A   Overcast
10:53 AM 3.9 °F -16.6 °F -13.0 °F 46% 30.58 in 10.0 mi ESE 19.6 mph - N/A   Overcast
11:53 AM 5.0 °F -15.7 °F -11.9 °F 46% 30.58 in 10.0 mi ESE 20.7 mph - N/A   Overcast
12:53 PM 6.1 °F -13.3 °F -9.9 °F 48% 30.57 in 10.0 mi ESE 18.4 mph 28.8 mph N/A   Overcast
1:53 PM 7.0 °F -12.1 °F -9.9 °F 46% 30.56 in 10.0 mi ESE 18.4 mph 26.5 mph N/A   Overcast
2:53 PM 7.0 °F -12.6 °F -9.9 °F 46% 30.55 in 10.0 mi ESE 19.6 mph - N/A   Overcast
3:53 PM 7.0 °F -10.4 °F -9.9 °F 46% 30.56 in 10.0 mi East 15.0 mph - N/A   Overcast
4:53 PM 6.1 °F -12.8 °F -9.9 °F 48% 30.57 in 10.0 mi East 17.3 mph - N/A   Overcast
5:53 PM 3.9 °F -15.6 °F -11.9 °F 48% 30.59 in 10.0 mi East 17.3 mph - N/A   Overcast
6:53 PM 3.0 °F -17.8 °F -13.0 °F 47% 30.61 in 10.0 mi East 19.6 mph 25.3 mph N/A   Overcast
7:53 PM 1.9 °F -18.7 °F -13.0 °F 50% 30.62 in 10.0 mi ENE 18.4 mph 26.5 mph N/A   Overcast
8:53 PM 1.0 °F -18.7 °F -13.0 °F 52% 30.65 in 10.0 mi East 16.1 mph 20.7 mph N/A   Overcast
9:53 PM -0.0 °F -16.3 °F -13.0 °F 54% 30.68 in 10.0 mi East 10.4 mph - N/A   Overcast
10:53 PM -0.0 °F -20.7 °F -15.0 °F 49% 30.69 in 10.0 mi East 17.3 mph 24.2 mph N/A   Overcast
11:53 PM -0.9 °F -18.3 °F -17.0 °F 47% 30.70 in 10.0 mi East 11.5 mph - N/A   Overcast